Location: Hermaringen
(48.5952°N, 10.2585°E)
Time: 10:06:14
(UTC+00:00)

Courier 1B - Pass Details

Date: 23 February 2026
Orbit: 962 x 1208 km, 28.3° (Epoch: 7 March)

Event Time Altitude Azimuth Distance (km) Brightness Sun altitude
Rises 18:12:35 0° 227° (SW) 3,795 11.3 -13.9°
Reaches altitude 10° 18:16:48 10° 204° (SSW) 2,897 10.3 -14.6°
Maximum altitude 18:20:08 14° 175° (S) 2,661 9.7 -15.1°
Drops below altitude 10° 18:23:34 10° 147° (SSE) 2,987 9.7 -15.7°
Enters shadow 18:24:39 - 140° (SE) 3,187 9.8 -15.8°
Sets 18:28:03 0° 124° (ESE) 4,001 - -16.4°
